[[{"header":{"parameterUnit":"m.s-1","parameterCategory":1,"la1":30.2991,"la2":30.254,"lo1":-89.0895,"lo2":-89.0444,"dy":0.0017,"dx":0.0017,"nx":28,"ny":28,"refTime":"2025-02-05T09:00:00:Z","depth":0,"parameterNumber":2,"parameterNumberName":"U-component_of_WINDS"},"data":[0,0,0,0,0,0,0,0,0,0,0,0,0,0,0,0,0,0,0,0,0,0,0,0,0,0,0,0,0,0,0,0,0,0,0,0,0,0,0,0,0,0,0,0,0,0,0,0,0,0,0,0,0,0,0,0,0,0,-1.2374,-1.2374,0,-1.2357,-1.2356,-1.2356,-1.2322,-1.2321,-1.2321,-1.232,-1.2303,-1.2303,-1.2303,0,0,0,0,0,0,0,0,0,0,0,0,0,-1.2381,-1.2381,-1.2374,-1.2374,-1.2374,-1.2357,-1.2356,-1.2356,-1.2322,-1.2321,-1.2321,-1.232,-1.2303,-1.2303,-1.2303,0,0,0,0,0,0,0,0,0,0,0,0,0,-1.2372,-1.2381,-1.2374,-1.2355,-1.2353,-1.2357,-1.2356,-1.2356,-1.2322,-1.2321,-1.232,-1.2319,-1.2303,-1.2303,-1.2303,-1.2324,0,0,-1.2304,-1.2304,0,0,0,0,0,0,0,0,-1.2373,-1.2372,-1.2358,-1.2356,-1.2354,-1.2341,-1.2352,-1.2346,-1.2323,-1.2334,-1.232,-1.2319,-1.2316,-1.2315,-1.2314,-1.2324,-1.2323,-1.2304,-1.2304,-1.2304,-1.2304,0,0,0,0,0,0,0,-1.2373,-1.2373,-1.2367,-1.2358,-1.2355,-1.2348,-1.2345,-1.2351,-1.2331,-1.2333,-1.233,-1.2329,-1.2315,-1.2314,-1.2313,-1.2323,-1.2304,-1.2304,-1.2304,-1.2304,-1.2351,-1.2352,0,0,0,0,0,0,-1.2377,-1.2373,-1.2368,-1.2367,-1.2361,-1.2349,-1.2346,-1.2346,-1.2331,-1.2327,-1.233,-1.2327,-1.2314,-1.2313,-1.2313,-1.2337,-1.2304,-1.2304,-1.2304,-1.235,-1.2351,-1.2352,0,0,0,0,0,0,-1.2377,-1.2377,-1.2369,-1.2369,-1.2368,-1.2349,-1.235,-1.2346,-1.2345,-1.2328,-1.2325,-1.2332,-1.2313,-1.2312,-1.2322,-1.2336,-1.2304,-1.2304,-1.2348,-1.235,-1.2352,-1.2387,0,0,0,0,0,0,-1.2377,-1.2377,-1.2384,-1.237,-1.2368,-1.2378,-1.2351,-1.2346,-1.2345,-1.2342,-1.233,-1.2327,-1.2312,-1.2322,-1.2322,-1.2336,-1.2305,-1.2347,-1.2349,-1.2351,-1.2384,-1.2389,-1.2394,0,0,0,0,0,-1.2378,-1.2394,-1.2385,-1.2384,-1.2376,-1.2378,-1.2377,-1.236,-1.2347,-1.2354,-1.2344,-1.2327,-1.2335,-1.2323,-1.2323,-1.2337,-1.2346,-1.2349,-1.2351,-1.2382,-1.2388,-1.2394,0,0,0,0,0,0,-1.241,-1.2392,-1.2381,-1.2393,-1.2388,-1.2373,-1.2381,-1.2367,-1.2366,-1.2363,-1.2342,-1.234,-1.2352,-1.2346,-1.2333,-1.2358,-1.2338,-1.2341,-1.2362,-1.2367,-1.2372,-1.2373,-1.2305,0,0,0,0,0,-1.2419,-1.2422,-1.2406,-1.2418,-1.2416,-1.24,-1.24,-1.2388,-1.2381,-1.2378,-1.2369,-1.2363,-1.2365,-1.2366,-1.2366,-1.2384,-1.2381,-1.2394,-1.2399,-1.2403,-1.2405,-1.2415,-1.242,-1.236,-1.236,-1.236,0,0,-1.2437,-1.2427,-1.243,-1.2425,-1.2419,-1.2423,-1.2398,-1.2403,-1.2406,-1.2379,-1.2388,-1.2381,-1.2374,-1.2388,-1.2394,-1.2383,-1.2421,-1.2406,-1.2409,-1.2409,-1.2418,-1.2424,-1.2429,-1.2362,-1.2362,-1.2362,0,0,-1.2471,-1.2464,-1.2474,-1.2469,-1.2461,-1.245,-1.2453,-1.2441,-1.2435,-1.2444,-1.2424,-1.2428,-1.2431,-1.2427,-1.2425,-1.2461,-1.2446,-1.2462,-1.2487,-1.2497,-1.2501,-1.2506,-1.2519,-1.2524,-1.2465,-1.2465,-1.2465,0,-1.2494,-1.2498,-1.2481,-1.2487,-1.2486,-1.2464,-1.2474,-1.2471,-1.2463,-1.2463,-1.2452,-1.2456,-1.245,-1.2463,-1.2472,-1.2471,-1.2474,-1.2463,-1.2502,-1.2506,-1.251,-1.2522,-1.2527,-1.2467,-1.2467,-1.2466,-1.2466,0,-1.2527,-1.2531,-1.254,-1.2534,-1.2534,-1.2543,-1.2528,-1.2531,-1.2519,-1.251,-1.252,-1.2512,-1.2511,-1.2514,-1.2502,-1.2526,-1.252,-1.2506,-1.2485,-1.2518,-1.2529,-1.2533,-1.247,-1.2469,-1.2468,-1.2468,0,0,-1.2578,-1.2565,-1.2568,-1.2566,-1.2557,-1.256,-1.2569,-1.2568,-1.257,-1.2567,-1.2574,-1.2578,-1.2566,-1.2564,-1.2553,-1.2562,-1.2591,-1.2546,-1.2546,-1.2555,-1.2618,-1.2628,-1.2634,-1.2582,-1.2583,-1.2584,-1.2618,0,-1.261,-1.2623,-1.2609,-1.2625,-1.2629,-1.261,-1.2617,-1.2613,-1.2606,-1.2609,-1.2601,-1.2604,-1.2587,-1.2586,-1.2594,-1.2586,-1.2604,-1.2583,-1.2589,-1.2589,-1.259,-1.2639,-1.2649,-1.2683,-1.2623,-1.2623,-1.2624,0,-1.2648,-1.2647,-1.2664,-1.2655,-1.2656,-1.2663,-1.2662,-1.2666,-1.2661,-1.2655,-1.2655,-1.2642,-1.2651,-1.2632,-1.2644,-1.2631,-1.2633,-1.2629,-1.263,-1.2629,-1.2607,-1.2639,-1.2693,-1.2697,-1.2631,-1.263,-1.263,0,-1.2684,-1.2687,-1.2697,-1.2696,-1.2686,-1.2692,-1.2688,-1.2683,-1.2684,-1.2684,-1.2685,-1.2686,-1.2686,-1.2688,-1.2676,-1.2663,-1.269,-1.267,-1.2686,-1.2686,-1.2691,-1.269,-1.2745,-1.2694,-1.2694,-1.2694,-1.2694,0,-1.2719,-1.2731,-1.2713,-1.272,-1.2732,-1.2717,-1.273,-1.2725,-1.2721,-1.2727,-1.271,-1.2716,-1.27,-1.2705,-1.2696,-1.2708,-1.2708,-1.2704,-1.2701,-1.2705,-1.2705,-1.2705,-1.2702,-1.2695,-1.2695,-1.2694,-1.2694,0,-1.276,-1.2749,-1.276,-1.2751,-1.2749,-1.2758,-1.2751,-1.2757,-1.275,-1.2757,-1.2759,-1.2747,-1.2752,-1.274,-1.2744,-1.2738,-1.2755,-1.2749,-1.2756,-1.2754,-1.2771,-1.2769,-1.2826,-1.2833,-1.2778,-1.2778,-1.2779,0,-1.2783,-1.2792,-1.2784,-1.2787,-1.2784,-1.2789,-1.279,-1.2777,-1.2779,-1.2776,-1.2783,-1.2787,-1.2789,-1.2798,-1.279,-1.2793,-1.2786,-1.2806,-1.2787,-1.2791,-1.2786,-1.2786,-1.2787,-1.281,-1.281,-1.2811,-1.2811,0,-1.2826,-1.282,-1.2823,-1.2824,-1.2826,-1.2827,-1.2826,-1.283,-1.2815,-1.2819,-1.2824,-1.2826,-1.283,-1.2834,-1.2836,-1.2833,-1.282,-1.2818,-1.2822,-1.2825,-1.2829,-1.2827,-1.2767,-1.2816,-1.2816,-1.2816,-1.2815,-1.2815,-1.2858,-1.2865,-1.2861,-1.2865,-1.2863,-1.2863,-1.2869,-1.2863,-1.2867,-1.2869,-1.2862,-1.2869,-1.2866,-1.2867,-1.2866,-1.2872,-1.2863,-1.2868,-1.287,-1.2871,-1.2873,-1.2829,-1.2872,-1.2872,-1.2872,-1.2872,-1.2872,0,-1.2899,-1.2896,-1.29,-1.29,-1.2903,-1.2892,-1.2892,-1.2895,-1.2902,-1.2901,-1.2903,-1.291,-1.2915,-1.2908,-1.2912,-1.2918,-1.2913,-1.292,-1.2918,-1.2918,-1.2881,-1.2877,-1.2924,-1.2924,-1.2924,-1.2924,-1.2924,-1.2924,-1.2921,-1.2932,-1.2927,-1.2938,-1.2935,-1.2941,-1.2942,-1.2943,-1.2942,-1.295,-1.2954,-1.295,-1.2947,-1.2951,-1.2955,-1.2954,-1.2955,-1.2964,-1.2961,-1.2926,-1.2921,-1.2916,-1.2912,-1.2965,-1.2965,-1.2997,-1.2997,-1.2997]},{"header":{"parameterUnit":"m.s-1","parameterCategory":1,"la1":30.2991,"la2":30.254,"lo1":-89.0895,"lo2":-89.0444,"dy":0.0017,"dx":0.0017,"nx":28,"ny":28,"refTime":"2025-02-05T09:00:00:Z","depth":0,"parameterNumber":3,"parameterNumberName":"V-component_of_WINDS"},"data":[0,0,0,0,0,0,0,0,0,0,0,0,0,0,0,0,0,0,0,0,0,0,0,0,0,0,0,0,0,0,0,0,0,0,0,0,0,0,0,0,0,0,0,0,0,0,0,0,0,0,0,0,0,0,0,0,0,0,1.3129,1.3128,0,1.3104,1.3104,1.3104,1.312,1.3121,1.3122,1.3123,1.3096,1.3095,1.3093,0,0,0,0,0,0,0,0,0,0,0,0,0,1.3188,1.3187,1.3129,1.3128,1.3128,1.3105,1.3104,1.3104,1.312,1.3121,1.3122,1.3123,1.3096,1.3095,1.3093,0,0,0,0,0,0,0,0,0,0,0,0,0,1.3163,1.3187,1.3129,1.3133,1.3134,1.3105,1.3104,1.3104,1.312,1.3121,1.3122,1.3123,1.3097,1.3095,1.3093,1.3057,0,0,1.3086,1.3086,0,0,0,0,0,0,0,0,1.3164,1.3161,1.3133,1.3133,1.3133,1.3117,1.3116,1.3088,1.312,1.3125,1.3123,1.3124,1.3102,1.3099,1.3092,1.3056,1.3055,1.3086,1.3085,1.3084,1.3083,0,0,0,0,0,0,0,1.3166,1.3162,1.3119,1.3133,1.3133,1.3137,1.3134,1.311,1.3107,1.3125,1.3126,1.3123,1.3102,1.3094,1.3092,1.3055,1.3086,1.3084,1.3083,1.3082,1.299,1.2989,0,0,0,0,0,0,1.3168,1.3163,1.312,1.3118,1.3152,1.3135,1.3132,1.3121,1.3108,1.3107,1.3122,1.3124,1.3097,1.3094,1.3091,1.305,1.3084,1.3082,1.3081,1.2991,1.299,1.2988,0,0,0,0,0,0,1.3169,1.3164,1.3121,1.3141,1.3136,1.3132,1.312,1.312,1.3112,1.3106,1.3105,1.3115,1.3098,1.3094,1.3066,1.3049,1.3081,1.3079,1.2993,1.2991,1.2989,1.2967,0,0,0,0,0,0,1.3171,1.3164,1.315,1.3141,1.3135,1.3096,1.3119,1.3118,1.3109,1.3111,1.3099,1.3098,1.3099,1.3069,1.3064,1.3047,1.3078,1.2994,1.2992,1.299,1.2969,1.2964,1.296,0,0,0,0,0,1.3173,1.3144,1.315,1.3144,1.3118,1.3095,1.3092,1.3094,1.3107,1.3094,1.309,1.3098,1.3052,1.3066,1.3061,1.3042,1.2995,1.2992,1.299,1.2971,1.2965,1.2961,0,0,0,0,0,0,1.3151,1.3143,1.3149,1.3117,1.3107,1.3098,1.3081,1.3088,1.3074,1.3076,1.3079,1.3076,1.3048,1.3042,1.3058,1.3008,1.3026,1.3022,1.3013,1.3008,1.3004,1.3006,1.3076,0,0,0,0,0,1.3143,1.3125,1.3119,1.3091,1.3086,1.3085,1.3075,1.3078,1.3067,1.3063,1.3057,1.3046,1.3029,1.3018,1.3002,1.2968,1.2966,1.2953,1.2949,1.2945,1.2942,1.2925,1.292,1.298,1.298,1.298,0,0,1.3125,1.3118,1.3107,1.3087,1.3079,1.3062,1.3081,1.3061,1.3048,1.3059,1.3034,1.3029,1.3017,1.2987,1.2973,1.2981,1.2925,1.2942,1.2939,1.2938,1.2922,1.2916,1.2911,1.2978,1.2978,1.2979,0,0,1.3083,1.3076,1.3053,1.3046,1.3035,1.3035,1.3029,1.302,1.3018,1.2992,1.3001,1.2985,1.2956,1.2948,1.294,1.2897,1.2905,1.2892,1.287,1.2854,1.2849,1.2845,1.2831,1.2826,1.2889,1.2888,1.2888,0,1.3062,1.3036,1.304,1.302,1.3012,1.3023,1.3,1.2992,1.2976,1.297,1.298,1.2945,1.2937,1.2906,1.2896,1.2888,1.2883,1.2893,1.2849,1.2845,1.2841,1.2828,1.2823,1.2887,1.2887,1.2887,1.2887,0,1.3012,1.2994,1.2976,1.2962,1.2952,1.293,1.2931,1.2919,1.2923,1.2922,1.2896,1.2888,1.2872,1.2864,1.2867,1.2834,1.2839,1.2849,1.2866,1.2834,1.2822,1.2817,1.2885,1.2886,1.2886,1.2886,0,0,1.2955,1.2945,1.2939,1.2933,1.2923,1.2909,1.2888,1.2873,1.2864,1.2853,1.2836,1.2812,1.2821,1.2812,1.2815,1.28,1.2769,1.2812,1.2812,1.2805,1.2733,1.2726,1.272,1.2774,1.2773,1.2772,1.2734,0,1.2915,1.2879,1.2883,1.285,1.2834,1.2845,1.2827,1.2819,1.2817,1.2803,1.2801,1.2784,1.2798,1.2792,1.2779,1.2776,1.2755,1.2778,1.2759,1.2758,1.2762,1.2714,1.2706,1.2671,1.2729,1.2729,1.2728,0,1.2862,1.2851,1.2816,1.281,1.2803,1.2787,1.2775,1.2761,1.2752,1.2752,1.2743,1.2748,1.2728,1.2746,1.2718,1.2734,1.2727,1.2724,1.2723,1.2722,1.2741,1.2712,1.266,1.2655,1.272,1.2721,1.2721,0,1.2826,1.2802,1.2779,1.2773,1.2765,1.2754,1.275,1.2742,1.2733,1.2722,1.2717,1.2703,1.2695,1.2685,1.2686,1.2699,1.2659,1.2676,1.2659,1.2659,1.265,1.265,1.2596,1.2643,1.2643,1.2644,1.2644,0,1.2781,1.2759,1.2763,1.2748,1.2725,1.2729,1.2706,1.2703,1.2697,1.2683,1.2691,1.2677,1.268,1.2666,1.2667,1.2645,1.2641,1.2641,1.2642,1.2641,1.2641,1.2636,1.2639,1.2642,1.2642,1.2643,1.2643,0,1.2736,1.2738,1.2713,1.2708,1.2706,1.269,1.2685,1.2672,1.2671,1.2653,1.2649,1.2648,1.2633,1.2633,1.2615,1.2616,1.2589,1.2592,1.2593,1.2593,1.2576,1.2578,1.2518,1.251,1.2561,1.2561,1.256,0,1.2708,1.2692,1.2685,1.2677,1.2673,1.2658,1.265,1.2654,1.2645,1.2635,1.2623,1.2608,1.2597,1.2572,1.2569,1.2556,1.2559,1.2539,1.2557,1.2557,1.256,1.2562,1.2561,1.2536,1.2535,1.2535,1.2534,0,1.2657,1.2659,1.2647,1.2635,1.2625,1.2616,1.2608,1.26,1.2604,1.2593,1.2578,1.2569,1.2552,1.2538,1.2525,1.2521,1.2528,1.2529,1.2524,1.2523,1.2524,1.2525,1.2584,1.253,1.253,1.2531,1.2531,1.2531,1.262,1.2607,1.2601,1.2588,1.2583,1.2575,1.2563,1.2562,1.2549,1.2536,1.2539,1.2523,1.2516,1.25,1.2495,1.2482,1.2489,1.2482,1.248,1.2479,1.2478,1.2526,1.2479,1.248,1.248,1.248,1.248,0,1.2571,1.2568,1.2556,1.2545,1.2535,1.2543,1.2535,1.2526,1.2511,1.2504,1.2494,1.2477,1.2464,1.2461,1.2448,1.2439,1.2442,1.2435,1.2436,1.2436,1.2471,1.2477,1.2433,1.2433,1.2433,1.2433,1.2433,1.2433,1.2544,1.2523,1.2525,1.2502,1.2499,1.2483,1.2478,1.2471,1.2466,1.2448,1.2437,1.2436,1.2431,1.2418,1.2407,1.2406,1.2402,1.2394,1.2395,1.2428,1.2433,1.2437,1.2443,1.2393,1.2393,1.2361,1.236,1.236]}]]